Location: Navarre
(52.9016°N, 113.4144°W)
Time: 12:53:03
(UTC+00:00)

Envisat - Pass Details

Date: 06 December 2021
Orbit: 764 x 766 km, 98.2° (Epoch: 28 January)

Event Time Altitude Azimuth Distance (km) Brightness Sun altitude
Rises 00:34:08 0° 198° (SSW) 3,222 6.9 -10.6°
Reaches altitude 10° 00:36:46 10° 210° (SSW) 2,301 6.3 -10.9°
Maximum altitude 00:41:02 27° 268° (W) 1,447 5.3 -11.5°
Drops below altitude 10° 00:45:21 10° 326° (NW) 2,317 5.7 -12.1°
Sets 00:48:01 0° 338° (NNW) 3,248 6.3 -12.5°
